Temp
73 74 74 74 74 74 74 74 74 75 75 75 75 75 75 75 75 75 75 81 80 80 81 81 81 81 81 80 80 80 80 80 79 79 79 79 79 79 79 79 78 78 78
72 72 72 72 72 73 74 74 74 73 73 74 75 75 75 75 75 75 75 76 80 80 81 81 81 81 81 81 80 80 80 80 80 79 79 79 78 78 78 79 79 78 78
71 70 71 72 72 72 73 73 73 73 73 73 73 74 74 74 75 75 75 75 77 80 81 81 81 80 81 81 80 80 79 79 79 78 78 78 77 77 78 78 78 78 78
71 71 70 71 72 72 72 71 72 71 72 72 72 73 74 74 74 74 75 76 75 79 79 80 80 80 80 81 81 80 79 79 78 78 77 78 77 77 77 77 78 77 77
72 70 70 71 72 71 71 71 71 71 70 71 71 72 72 73 73 75 75 75 75 75 77 78 79 79 80 81 81 81 80 79 78 78 78 78 78 77 77 77 77 77 76
71 71 71 70 71 71 70 70 70 70 71 71 72 72 72 72 72 73 74 76 75 75 75 76 77 78 80 81 81 81 80 79 78 78 78 78 77 77 76 76 76 76 76
71 70 69 70 70 70 70 70 70 70 69 70 69 67 69 71 72 73 74 75 74 75 74 75 76 76 78 79 79 79 80 80 79 78 78 77 77 77 76 77 76 76 76
70 71 70 69 68 69 69 69 69 68 68 69 67 66 66 70 70 72 73 74 74 75 74 75 75 76 77 77 78 79 79 80 80 79 78 77 77 77 76 76 76 75 75
69 69 70 69 68 69 68 69 70 69 67 68 69 66 63 64 66 70 71 72 73 72 73 75 75 75 76 75 77 78 79 78 79 79 78 77 77 76 76 76 75 75 75
69 70 69 69 69 68 69 70 70 69 69 67 68 68 68 68 65 66 69 71 72 72 73 74 74 75 75 75 76 76 77 76 78 79 76 78 77 76 76 76 76 75 75
68 69 70 69 68 68 69 69 69 69 69 68 68 67 68 68 68 66 65 68 70 73 74 74 74 74 76 76 76 75 75 75 76 77 77 77 77 77 77 77 77 77 77
67 67 69 69 69 68 69 69 70 69 69 69 68 68 68 67 67 66 65 66 68 71 74 74 74 74 74 75 76 75 75 74 74 74 74 75 77 77 77 78 77 77 77
66 67 68 68 68 69 69 69 69 69 68 68 67 68 68 68 69 67 67 66 66 68 71 73 72 73 76 75 75 75 76 74 72 71 71 72 74 75 76 77 77 77 77
66 68 68 69 69 69 69 69 69 69 68 68 67 67 67 68 69 68 68 66 65 65 67 70 70 71 72 74 75 74 75 72 71 69 68 68 69 70 73 74 74 75 75
67 69 69 69 69 69 69 69 68 68 68 68 68 67 67 68 69 69 69 68 67 64 65 69 68 71 71 73 74 75 74 70 70 68 66 66 67 67 68 68 69 70 70
67 68 68 69 69 69 69 68 68 69 68 67 68 67 67 68 69 69 68 68 68 66 64 66 65 67 70 70 70 70 70 68 67 67 67 67 66 65 66 66 67 67 67
67 66 66 67 67 68 68 68 67 68 67 67 67 67 68 68 68 68 67 66 66 66 63 64 66 67 68 68 66 65 66 66 66 65 65 65 64 64 65 65 65 66 66
66 65 66 65 65 66 67 67 68 68 67 66 67 67 67 68 66 66 66 65 65 66 64 63 64 65 65 64 63 62 63 63 63 65 64 63 63 63 63 63 62 62 62
65 65 65 65 64 64 64 64 64 63 64 64 66 65 66 66 65 65 64 63 64 65 65 63 62 64 64 62 60 60 60 60 64 65 63 62 61 61 60 60 59 58 57
64 64 64 64 64 65 65 64 63 62 61 61 61 62 62 62 62 62 63 63 64 63 63 62 62 62 61 61 59 57 56 57 57 60 61 62 62 63 61 60 60 59 56
62 62 63 63 63 64 65 63 62 61 60 59 59 60 62 63 63 63 61 61 61 62 62 61 61 61 61 60 59 58 56 56 55 57 56 56 56 57 58 61 62 60 57
59 62 62 62 62 63 59 60 61 59 59 59 57 57 57 57 57 58 58 59 59 59 61 60 61 59 57 57 57 59 56 56 53 56 55 54 56 56 57 59 61 59 57
57 58 59 61 60 59 57 58 60 59 60 59 58 58 57 56 56 55 57 58 58 58 58 58 52 52 52 53 56 56 56 54 52 51 54 52 54 54 55 56 57 57 55
55 55 56 58 57 56 54 54 56 56 55 55 57 57 56 57 57 57 56 55 55 55 57 57 54 52 54 54 53 55 53 51 52 51 53 49 50 50 54 53 56 57 56
53 54 56 56 55 55 53 53 55 55 54 53 55 56 56 57 55 56 57 55 55 56 56 56 56 56 55 55 57 57 54 57 54 53 53 52 50 51 51 51 53 55 56
53 54 55 55 55 54 51 51 55 56 54 54 54 54 54 54 51 51 56 56 54 55 57 57 57 56 56 56 56 55 56 53 52 53 54 51 50 52 49 52 51 50 51
MSLP
1017.01 1017.16 1017.21 1017.52 1017.49 1017.60 1017.76 1017.91 1017.93 1017.87 1018.00 1018.26 1018.36 1018.58 1018.67 1018.74 1018.94 1019.10 1019.15 1019.04 1019.40 1019.59 1019.77 1020.09 1020.60 1020.80 1021.06 1021.34 1021.54 1021.81 1022.08 1022.30 1022.56 1022.70 1022.88 1023.06 1023.34 1023.58 1023.79 1024.00 1024.23 1024.49 1024.74
1016.83 1016.97 1017.26 1017.36 1017.62 1017.55 1017.72 1017.89 1017.90 1017.91 1018.04 1018.12 1018.21 1018.26 1018.39 1018.45 1018.67 1018.83 1018.96 1019.03 1019.04 1019.23 1019.44 1019.64 1020.11 1020.41 1020.75 1021.03 1021.36 1021.56 1021.75 1021.93 1022.21 1022.45 1022.67 1022.83 1022.95 1023.31 1023.59 1023.81 1024.06 1024.33 1024.61
1016.92 1016.92 1017.08 1017.19 1017.28 1017.38 1017.47 1017.78 1017.87 1017.92 1018.15 1018.01 1018.14 1018.01 1018.02 1018.14 1018.33 1018.53 1018.72 1018.81 1018.86 1018.98 1019.21 1019.43 1019.79 1020.07 1020.35 1020.66 1021.02 1021.25 1021.50 1021.67 1021.86 1022.13 1022.37 1022.59 1022.78 1023.01 1023.22 1023.50 1023.82 1024.07 1024.34
1016.65 1016.78 1016.96 1017.08 1017.15 1017.33 1017.39 1017.58 1017.87 1018.00 1018.08 1018.20 1017.96 1017.82 1017.66 1017.83 1018.01 1018.13 1018.43 1018.69 1018.87 1018.90 1019.14 1019.28 1019.52 1019.66 1020.07 1020.32 1020.48 1020.78 1021.10 1021.37 1021.61 1021.87 1022.11 1022.35 1022.49 1022.66 1022.89 1023.17 1023.41 1023.75 1024.07
1016.29 1016.52 1016.71 1016.75 1017.02 1017.24 1017.42 1017.57 1017.73 1017.98 1018.02 1018.06 1017.99 1017.74 1017.67 1017.67 1017.78 1018.02 1018.19 1018.42 1018.61 1018.76 1018.86 1019.07 1019.23 1019.31 1019.73 1019.89 1020.04 1020.23 1020.54 1020.89 1021.22 1021.44 1021.63 1021.87 1022.07 1022.26 1022.52 1022.77 1023.06 1023.36 1023.67
1016.02 1016.36 1016.40 1016.46 1016.54 1016.90 1017.21 1017.43 1017.72 1017.90 1017.97 1017.96 1017.94 1017.74 1017.73 1017.59 1017.76 1017.97 1017.94 1018.13 1018.37 1018.47 1018.66 1018.97 1019.11 1019.20 1019.32 1019.48 1019.51 1019.70 1020.02 1020.24 1020.61 1020.98 1021.22 1021.40 1021.63 1021.85 1022.07 1022.32 1022.58 1022.88 1023.23
1015.40 1015.86 1016.04 1016.19 1016.30 1016.55 1016.72 1017.07 1017.49 1017.77 1017.84 1017.94 1018.10 1017.96 1017.73 1017.69 1017.68 1017.68 1017.83 1017.84 1018.01 1018.03 1018.19 1018.52 1018.73 1018.85 1018.96 1018.97 1019.06 1019.26 1019.52 1019.80 1020.02 1020.33 1020.65 1020.94 1021.24 1021.44 1021.51 1021.69 1021.94 1022.31 1022.65
1015.04 1015.22 1015.56 1015.66 1015.77 1016.20 1016.45 1016.78 1017.14 1017.43 1017.54 1017.73 1018.01 1018.04 1017.92 1017.88 1017.58 1017.43 1017.67 1017.77 1017.73 1017.59 1017.77 1018.05 1018.28 1018.39 1018.53 1018.67 1018.57 1018.67 1018.99 1019.18 1019.45 1019.83 1020.17 1020.49 1020.63 1020.87 1021.06 1021.19 1021.45 1021.73 1021.97
1014.87 1015.05 1014.75 1014.97 1015.31 1015.59 1015.89 1016.24 1016.61 1016.95 1017.21 1017.48 1017.63 1017.56 1017.96 1017.74 1017.58 1017.32 1017.39 1017.50 1017.41 1017.33 1017.38 1017.61 1017.84 1017.89 1018.00 1018.14 1018.21 1018.23 1018.39 1018.61 1018.86 1019.21 1019.62 1019.99 1020.16 1020.30 1020.50 1020.69 1020.94 1021.16 1021.42
1014.27 1014.39 1014.37 1014.42 1014.64 1015.03 1015.43 1015.68 1016.12 1016.58 1016.91 1017.18 1017.52 1017.60 1017.43 1017.46 1017.47 1017.51 1017.37 1017.24 1017.24 1017.18 1017.18 1017.20 1017.23 1017.37 1017.46 1017.56 1017.62 1017.75 1017.82 1017.97 1018.21 1018.60 1019.07 1019.38 1019.55 1019.70 1019.89 1020.10 1020.37 1020.67 1020.86
1013.65 1013.76 1013.90 1014.16 1014.35 1014.68 1014.88 1015.30 1015.81 1016.26 1016.44 1016.80 1017.12 1017.29 1017.58 1017.54 1017.39 1017.45 1017.44 1017.18 1017.04 1016.89 1016.84 1016.78 1016.82 1016.96 1017.10 1017.09 1017.07 1017.17 1017.31 1017.45 1017.66 1017.99 1018.31 1018.62 1018.81 1019.06 1019.37 1019.53 1019.64 1019.84 1020.06
1013.60 1013.66 1013.49 1013.80 1014.04 1014.31 1014.62 1014.93 1015.28 1015.72 1016.01 1016.41 1016.75 1016.85 1016.98 1017.12 1017.19 1017.27 1017.44 1017.40 1017.32 1016.78 1016.54 1016.49 1016.58 1016.45 1016.76 1016.82 1016.69 1016.72 1016.93 1017.03 1017.21 1017.47 1017.71 1017.91 1018.12 1018.40 1018.62 1018.80 1019.04 1019.27 1019.44
1014.00 1013.67 1013.51 1013.70 1013.89 1013.98 1014.35 1014.65 1015.02 1015.34 1015.64 1016.14 1016.51 1016.56 1016.62 1016.49 1016.66 1016.87 1017.13 1017.32 1017.34 1017.14 1016.74 1016.39 1016.19 1016.15 1016.42 1016.62 1016.44 1016.35 1016.39 1016.60 1016.75 1016.86 1017.09 1017.30 1017.54 1017.84 1018.07 1018.32 1018.57 1018.77 1018.95
1014.40 1013.77 1013.65 1013.64 1013.82 1013.83 1014.14 1014.47 1014.82 1014.99 1015.30 1015.74 1016.11 1016.38 1016.34 1016.31 1016.36 1016.42 1016.64 1016.99 1017.30 1017.28 1017.07 1016.65 1016.49 1016.46 1016.55 1016.55 1016.41 1016.19 1016.24 1016.44 1016.44 1016.35 1016.64 1016.85 1017.16 1017.48 1017.64 1017.80 1018.08 1018.29 1018.47
1014.19 1013.95 1013.89 1013.91 1013.79 1013.78 1014.08 1014.42 1014.62 1014.80 1015.13 1015.42 1015.73 1016.04 1016.12 1016.11 1016.13 1016.23 1016.33 1016.45 1016.78 1017.23 1017.21 1016.92 1016.97 1016.75 1016.51 1016.62 1016.20 1015.90 1016.20 1016.36 1016.33 1016.34 1016.72 1016.95 1017.04 1017.17 1017.46 1017.62 1017.78 1017.87 1018.01
1014.23 1014.11 1013.93 1013.90 1013.85 1013.77 1013.80 1014.15 1014.49 1014.72 1015.02 1015.30 1015.49 1015.66 1015.73 1015.80 1016.01 1016.26 1016.26 1016.38 1016.61 1016.93 1017.25 1017.28 1017.12 1016.99 1016.37 1016.57 1016.23 1016.24 1016.67 1016.81 1016.74 1016.51 1016.58 1016.65 1016.87 1017.07 1017.11 1017.31 1017.48 1017.61 1017.77
1014.68 1014.57 1014.41 1014.21 1014.01 1013.87 1013.96 1014.13 1014.39 1014.69 1014.88 1015.14 1015.36 1015.42 1015.46 1015.66 1015.86 1016.20 1016.38 1016.56 1016.72 1016.86 1017.10 1017.21 1017.27 1017.27 1017.04 1016.71 1016.64 1016.85 1017.25 1017.30 1017.06 1017.09 1017.03 1016.78 1016.80 1017.08 1017.28 1017.42 1017.83 1017.74 1018.16
1015.11 1015.04 1014.95 1014.66 1014.38 1014.24 1014.19 1014.32 1014.44 1014.67 1014.87 1014.99 1015.11 1015.27 1015.40 1015.66 1015.94 1016.24 1016.25 1016.51 1016.64 1016.72 1016.88 1017.12 1017.33 1017.26 1017.22 1017.26 1017.43 1017.70 1017.83 1017.74 1017.66 1017.73 1017.62 1017.44 1017.44 1017.59 1017.78 1018.02 1018.16 1018.28 1018.73
1015.47 1015.37 1015.35 1015.18 1015.02 1014.90 1014.92 1014.99 1015.04 1015.12 1015.32 1015.41 1015.47 1015.55 1015.64 1015.76 1015.98 1016.07 1016.31 1016.50 1016.60 1016.67 1016.54 1016.98 1017.25 1017.37 1017.53 1017.65 1017.95 1018.22 1018.42 1018.58 1018.43 1018.27 1018.34 1018.36 1018.31 1018.29 1018.48 1018.76 1018.95 1019.05 1019.40
1015.97 1015.86 1015.93 1015.83 1015.74 1015.61 1015.56 1015.62 1015.74 1015.97 1016.19 1015.90 1015.96 1015.99 1016.01 1016.12 1016.35 1016.46 1016.69 1016.79 1016.66 1016.77 1016.91 1017.06 1017.34 1017.38 1017.62 1017.94 1018.06 1018.57 1018.94 1019.15 1019.25 1019.14 1019.26 1019.12 1019.39 1019.42 1019.27 1019.57 1019.95 1020.06 1020.27
1016.54 1016.48 1016.53 1016.56 1016.58 1016.43 1016.37 1016.29 1016.42 1016.67 1016.84 1017.02 1017.07 1017.08 1016.97 1017.07 1017.27 1017.38 1017.43 1017.48 1017.37 1017.18 1017.39 1017.56 1017.80 1017.95 1018.03 1018.28 1018.39 1018.72 1019.17 1019.50 1019.95 1019.91 1020.08 1020.24 1020.39 1020.44 1020.53 1020.61 1020.56 1020.75 1021.22
1017.13 1017.06 1017.18 1017.28 1017.41 1017.48 1017.33 1017.18 1017.20 1017.39 1017.55 1017.75 1017.89 1017.87 1017.91 1018.05 1018.24 1018.37 1018.39 1018.32 1018.09 1017.97 1018.01 1018.14 1018.27 1018.61 1018.99 1019.09 1019.01 1019.00 1019.34 1019.74 1020.34 1020.48 1020.69 1021.02 1021.00 1021.36 1021.47 1021.34 1021.45 1021.61 1022.04
1017.86 1017.81 1017.83 1017.84 1018.02 1018.16 1018.03 1018.02 1018.02 1018.11 1018.21 1018.38 1018.45 1018.55 1018.78 1018.99 1019.02 1019.13 1019.24 1019.13 1019.02 1018.84 1018.58 1018.56 1019.31 1019.58 1019.83 1019.90 1019.64 1019.55 1019.74 1020.16 1020.74 1021.18 1020.91 1021.37 1021.50 1021.71 1021.71 1021.93 1022.15 1022.20 1022.53
1018.44 1018.50 1018.50 1018.59 1018.73 1018.94 1018.64 1018.67 1018.78 1019.00 1019.09 1019.20 1019.25 1019.30 1019.46 1019.62 1019.75 1019.74 1019.88 1019.69 1019.68 1019.78 1019.64 1019.68 1020.03 1020.25 1020.34 1020.25 1020.01 1019.99 1020.25 1020.79 1021.23 1021.47 1021.30 1021.75 1021.88 1022.07 1022.25 1022.37 1022.38 1022.22 1022.36
1018.79 1018.95 1018.92 1019.05 1019.23 1019.50 1019.46 1019.35 1019.36 1019.63 1019.76 1020.04 1020.13 1020.17 1020.22 1020.38 1020.48 1020.43 1020.33 1020.34 1020.45 1020.57 1020.65 1020.62 1020.66 1020.68 1020.67 1020.44 1020.29 1020.35 1020.72 1020.73 1021.28 1021.74 1021.73 1021.79 1022.46 1022.56 1022.71 1022.72 1022.71 1022.39 1022.51
1018.97 1019.24 1019.30 1019.59 1019.81 1019.98 1020.17 1020.26 1020.17 1020.22 1020.29 1020.56 1020.88 1021.06 1021.04 1021.06 1021.16 1021.03 1020.93 1020.97 1021.06 1021.34 1021.12 1021.11 1021.16 1021.17 1021.21 1021.23 1021.09 1021.10 1021.20 1021.28 1021.45 1021.76 1022.14 1022.25 1022.58 1022.63 1022.87 1023.21 1023.20 1023.16 1023.00
Wind_Speed
4 3 3 2 3 2 2 3 3 2 3 4 5 5 5 6 6 3 3 13 15 16 15 16 17 16 15 14 13 14 14 14 13 13 13 12 12 12 12 11 11 10 10
3 3 3 4 3 3 2 3 3 3 3 4 5 5 6 6 6 6 4 5 14 15 16 16 17 17 16 16 15 15 15 15 14 14 13 13 12 13 13 13 13 12 12
4 4 3 3 4 3 4 3 3 2 3 3 5 5 5 6 7 7 6 5 5 13 15 16 16 16 16 16 17 16 16 15 15 15 14 14 13 13 13 13 15 13 13
5 4 4 4 4 3 2 3 3 3 4 4 3 4 4 4 7 7 6 6 4 6 10 16 16 16 16 18 17 17 16 15 15 15 15 14 15 14 14 14 14 14 14
6 6 5 5 5 4 4 3 3 3 3 3 3 3 4 4 5 5 8 8 7 5 4 10 15 16 18 19 18 18 18 17 16 15 15 16 15 15 15 15 14 14 15
5 6 5 6 5 4 4 3 5 4 3 3 3 3 3 3 3 4 7 7 6 7 6 7 5 8 18 19 18 18 18 18 18 17 16 16 15 15 16 16 16 15 15
8 8 5 6 6 7 7 6 3 5 4 2 1 2 1 3 4 5 5 6 7 8 7 7 6 5 7 18 18 18 19 18 18 18 16 15 15 16 16 17 17 17 16
8 8 9 8 8 7 6 6 5 3 2 4 3 1 1 1 3 4 5 6 8 6 6 8 9 9 8 7 12 20 17 18 18 14 15 12 15 16 15 15 16 17 18
6 9 9 7 7 7 7 7 7 6 3 3 4 3 2 4 0 1 5 5 6 5 5 8 10 9 9 8 10 12 18 18 18 17 16 17 14 15 16 15 16 16 17
5 5 7 7 7 6 6 6 6 5 4 4 1 4 0 2 3 1 1 3 5 6 5 5 6 8 9 7 12 14 14 16 19 17 14 21 14 16 16 15 13 13 15
4 5 5 6 6 5 6 7 7 7 6 3 3 2 2 1 0 1 2 2 1 5 5 6 6 6 9 8 7 9 13 14 14 14 15 14 17 14 11 14 15 16 14
2 5 6 5 5 5 6 6 7 8 7 6 4 4 3 3 3 2 1 1 2 3 3 4 7 6 6 7 9 11 12 12 11 11 12 14 16 16 17 16 13 14 13
2 3 4 5 4 5 5 5 6 7 6 5 6 4 3 3 2 2 2 2 3 2 2 3 4 4 7 7 7 11 11 9 9 12 12 11 13 14 15 15 17 16 15
4 4 3 4 4 4 5 5 4 5 5 5 7 6 4 4 3 3 3 3 1 1 1 4 1 3 4 5 6 6 4 3 5 7 8 7 8 6 11 13 13 13 12
3 2 2 2 4 5 5 5 4 5 5 5 6 7 5 4 3 3 2 2 3 3 2 1 1 3 1 3 1 1 1 2 2 5 5 5 5 6 7 7 11 10 7
4 2 1 1 2 3 5 5 4 3 4 3 4 7 6 3 4 3 3 3 2 2 1 0 2 3 3 4 9 8 6 7 11 4 5 5 3 2 2 4 6 7 6
6 5 5 3 1 3 3 4 4 4 5 4 5 7 6 5 4 4 2 1 2 2 2 1 1 2 2 5 7 7 6 5 6 11 6 0 3 4 7 11 9 13 12
6 6 6 6 6 5 3 3 4 3 3 4 5 5 5 4 5 3 2 3 3 3 3 3 1 1 3 5 6 7 5 5 6 12 10 11 11 11 12 12 13 15 14
7 8 8 8 7 7 7 8 7 6 6 6 3 3 3 4 4 3 3 3 2 1 2 2 2 1 2 2 5 5 5 5 5 12 15 14 13 14 14 14 13 14 13
7 9 8 9 8 8 9 9 9 9 8 8 8 7 7 6 5 4 3 2 2 4 3 3 2 2 3 3 3 3 3 4 5 7 12 14 12 15 16 14 12 14 12
7 7 8 9 8 8 6 7 8 7 8 9 10 9 10 13 16 11 3 4 5 2 3 2 2 2 2 1 1 2 2 3 5 3 5 5 5 5 6 8 12 13 10
7 7 8 9 9 6 9 11 9 8 8 8 7 8 8 12 14 17 16 17 11 2 1 1 1 2 3 3 3 1 3 2 3 4 2 3 4 4 4 4 10 10 7
6 6 6 6 8 8 11 12 12 8 9 7 7 6 7 6 8 8 13 16 18 19 13 4 5 3 3 4 3 3 4 4 3 3 1 2 2 1 2 2 5 4 4
6 5 6 6 8 7 12 14 14 9 9 9 9 8 8 8 7 8 9 11 12 12 10 9 8 5 4 3 4 2 4 6 3 3 2 2 2 3 3 4 5 2 3
6 5 6 7 7 7 9 10 10 9 10 11 9 9 9 9 10 8 10 10 10 10 12 15 14 13 15 16 9 3 2 2 3 3 4 2 1 1 1 4 5 14 2
7 5 9 7 8 7 9 8 7 6 10 8 9 10 15 11 12 10 8 8 9 7 8 9 8 10 11 12 16 10 6 4 2 2 4 2 2 2 1 2 3 4 3
Wind_Direction
198 205 206 208 216 193 206 212 217 204 195 215 191 194 200 199 200 211 200 206 198 201 198 203 200 200 203 203 199 201 200 203 206 202 201 207 199 198 193 192 186 187 188
206 203 208 195 209 195 203 223 217 211 222 206 218 198 210 208 199 199 208 219 208 206 205 202 204 205 209 209 206 207 208 210 209 211 209 205 205 199 202 202 198 197 196
215 231 207 211 213 197 185 221 235 215 240 222 233 212 208 212 200 206 201 210 228 216 209 203 207 207 211 216 213 215 217 216 215 210 214 212 212 206 201 202 205 205 204
215 204 208 225 213 202 194 190 208 222 229 233 223 228 209 192 203 201 202 211 208 217 221 216 205 211 215 217 219 218 219 219 222 221 215 215 212 212 203 208 208 209 211
214 202 212 222 212 206 200 201 208 209 229 244 235 247 241 205 201 196 205 204 203 214 211 232 217 214 219 221 222 225 219 217 223 224 221 215 215 211 209 211 213 211 207
224 218 222 222 200 205 212 199 207 207 227 236 247 236 266 224 190 199 208 211 211 211 205 215 236 231 225 226 227 227 229 225 218 222 224 222 215 209 210 213 215 217 211
211 218 221 227 208 207 209 205 177 206 228 215 140 267 305 234 226 206 210 213 221 218 207 214 224 220 228 230 229 235 232 231 232 225 227 229 222 221 217 218 218 217 216
232 218 220 214 210 209 195 186 183 182 216 176 178 64 228 278 224 210 213 222 228 213 213 216 222 221 220 225 231 233 233 234 233 221 238 230 225 222 220 220 221 220 220
243 237 222 212 202 201 195 188 188 182 199 198 204 163 134 224 289 130 217 220 222 209 215 214 216 219 218 223 233 239 236 235 232 222 222 242 226 222 224 222 222 229 229
245 241 228 214 204 198 197 188 183 186 157 201 213 212 283 174 189 221 236 236 229 232 228 226 222 225 222 221 226 227 230 230 231 228 220 241 243 229 231 234 232 238 233
261 249 225 215 203 197 190 185 173 191 195 170 187 146 206 257 129 136 239 293 280 234 239 243 242 234 233 228 227 237 242 227 229 231 227 228 231 231 234 238 225 230 231
313 250 224 207 204 193 188 193 192 188 195 208 200 181 186 178 193 173 185 218 251 297 262 245 248 241 242 236 227 222 230 233 229 233 238 236 224 219 226 227 223 221 220
324 259 216 200 205 194 198 184 188 191 186 194 209 214 211 209 161 172 153 192 238 278 302 263 249 238 240 233 222 218 242 247 243 236 230 228 231 229 229 225 220 220 234
289 313 215 195 208 213 201 191 196 186 184 198 204 214 226 223 188 174 171 154 201 275 303 279 349 276 255 246 233 219 240 230 265 203 195 199 215 229 238 217 220 228 233
310 328 237 215 206 194 198 188 199 197 193 204 214 204 214 224 214 191 174 153 152 204 243 284 340 30 303 232 255 201 161 310 167 132 166 172 174 190 220 237 245 226 212
7 13 74 175 189 185 176 176 194 202 202 208 218 209 210 197 188 189 164 147 151 159 210 289 29 325 38 67 58 54 71 53 36 46 142 153 150 175 246 217 179 149 142
24 17 14 22 58 176 171 171 182 194 206 206 212 215 208 174 169 155 145 162 193 139 172 247 64 306 70 81 63 60 46 43 40 26 354 146 177 195 150 126 129 115 106
43 29 25 29 36 47 83 137 151 163 196 205 186 170 168 170 156 182 175 179 198 194 185 193 174 36 61 45 65 67 43 46 48 41 51 70 77 89 100 113 110 101 102
52 48 43 45 48 56 57 56 66 70 65 54 89 108 115 135 129 144 142 141 136 142 186 175 139 137 85 101 71 51 50 38 35 57 57 59 76 91 90 80 85 87 88
64 65 48 50 50 59 68 72 73 66 58 51 50 56 57 57 59 62 71 53 123 112 90 87 64 65 79 61 80 102 73 53 53 45 59 64 64 79 84 91 93 93 87
66 61 58 48 39 44 53 72 74 73 75 67 52 48 55 62 58 56 53 32 14 44 90 91 88 51 49 78 78 113 97 89 47 45 58 45 55 44 60 87 98 89 83
68 65 60 63 58 53 54 69 76 75 72 70 68 59 54 56 58 62 62 61 52 23 55 69 65 47 38 12 3 39 133 154 106 17 70 53 31 39 21 34 60 71 84
73 66 63 67 70 58 55 64 70 68 72 62 64 64 67 62 70 76 70 67 61 57 57 64 81 44 62 357 339 33 54 57 65 3 34 82 19 92 58 29 50 69 137
87 84 72 57 72 57 77 77 76 71 70 63 59 68 74 69 60 81 83 74 63 53 58 69 70 57 59 34 50 29 97 113 106 42 23 93 8 51 43 20 8 110 147
92 79 76 73 75 72 66 83 87 82 78 67 62 63 72 72 60 67 88 85 79 76 70 68 69 65 53 48 53 97 64 90 98 55 18 93 29 110 93 51 29 35 69
106 91 89 73 74 77 49 54 77 95 89 84 70 62 64 70 53 43 76 78 77 62 72 61 53 49 47 47 47 46 32 55 47 96 11 76 45 20 96 42 34 23 20